• In Kazakhstan
  • List of Countries
  • For 7 days
  • Water Temperature
  • Satellite Maps
  • Weather Map
  • News
  • Weather Widgets
  • user-avatar
    Login

    Hourly Weather Flint

    Today, 19 September, Tuesday

    Time Temperature Precipitation Wind Pressure Humidity
    00:00 +15°C° 0 mm 2 mps 742 mmHg 87%
    01:00 +15°C° 0 mm 2 mps 742 mmHg 87%
    02:00 +15°C° 0 mm 2 mps 741 mmHg 87%
    03:00 +15°C° 0 mm 2 mps 741 mmHg 87%
    04:00 +15°C° 0 mm 2 mps 741 mmHg 86%
    05:00 +15°C° 0 mm 2 mps 741 mmHg 86%
    06:00 +16°C° 0 mm 2 mps 741 mmHg 86%
    07:00 +17°C° 0 mm 2 mps 742 mmHg 83%
    08:00 +18°C° 0 mm 2 mps 742 mmHg 81%
    09:00 +20°C° 0 mm 2 mps 742 mmHg 78%
    10:00 +21°C° 0 mm 2 mps 742 mmHg 77%
    11:00 +23°C° 0 mm 2 mps 742 mmHg 76%
    12:00 +24°C° 0 mm 2 mps 741 mmHg 75%
    13:00 +24°C° 0.1 mm 2 mps 741 mmHg 75%
    14:00 +25°C° 0.1 mm 2 mps 740 mmHg 74%
    15:00 +25°C° 0.1 mm 2 mps 740 mmHg 74%
    16:00 +24°C° 0.3 mm 2 mps 740 mmHg 80%
    17:00 +23°C° 0.3 mm 2 mps 740 mmHg 85%
    18:00 +21°C° 0.3 mm 2 mps 740 mmHg 91%
    19:00 +20°C° 0.4 mm 2 mps 740 mmHg 92%
    20:00 +20°C° 0.4 mm 2 mps 740 mmHg 93%
    21:00 +20°C° 0.4 mm 2 mps 740 mmHg 94%
    22:00 +19°C° 0 mm 2 mps 740 mmHg 94%
    23:00 +19°C° 0 mm 2 mps 740 mmHg 93%

    Tomorrow, 20 September, Wednesday

    Time Temperature Precipitation Wind Pressure Humidity
    00:00 +19°C° 0 mm 2 mps 740 mmHg 93%
    01:00 +19°C° 0 mm 2 mps 740 mmHg 93%
    02:00 +19°C° 0 mm 2 mps 740 mmHg 93%
    03:00 +19°C° 0 mm 2 mps 740 mmHg 94%
    04:00 +19°C° 0 mm 2 mps 740 mmHg 94%
    05:00 +18°C° 0 mm 2 mps 740 mmHg 94%
    06:00 +18°C° 0 mm 2 mps 740 mmHg 94%
    07:00 +20°C° 0 mm 2 mps 741 mmHg 88%
    08:00 +23°C° 0 mm 2 mps 741 mmHg 83%
    09:00 +25°C° 0 mm 3 mps 741 mmHg 77%
    10:00 +26°C° 0 mm 3 mps 741 mmHg 72%
    11:00 +28°C° 0 mm 3 mps 741 mmHg 67%
    12:00 +29°C° 0 mm 3 mps 741 mmHg 62%
    13:00 +29°C° 0 mm 3 mps 741 mmHg 62%
    14:00 +29°C° 0 mm 2 mps 741 mmHg 62%
    15:00 +29°C° 0 mm 2 mps 740 mmHg 62%
    16:00 +27°C° 0 mm 2 mps 740 mmHg 67%
    17:00 +26°C° 0 mm 2 mps 740 mmHg 72%
    18:00 +24°C° 0 mm 2 mps 740 mmHg 78%
    19:00 +24°C° 0 mm 2 mps 741 mmHg 81%
    20:00 +23°C° 0 mm 2 mps 741 mmHg 85%
    21:00 +21°C° 0 mm 3 mps 741 mmHg 88%
    22:00 +21°C° 0 mm 3 mps 741 mmHg 90%
    23:00 +21°C° 0 mm 3 mps 741 mmHg 91%

    Day after tomorrow, 21 September, Thursday

    Time Temperature Precipitation Wind Pressure Humidity
    00:00 +20°C° 0 mm 3 mps 741 mmHg 92%
    01:00 +20°C° 0.2 mm 3 mps 742 mmHg 92%
    02:00 +21°C° 0.2 mm 3 mps 742 mmHg 92%
    03:00 +21°C° 0.2 mm 3 mps 742 mmHg 92%
    04:00 +21°C° 0.2 mm 3 mps 742 mmHg 92%
    05:00 +21°C° 0.2 mm 3 mps 742 mmHg 92%
    06:00 +21°C° 0.2 mm 3 mps 742 mmHg 92%
    07:00 +22°C° 0 mm 3 mps 743 mmHg 88%
    08:00 +25°C° 0 mm 3 mps 743 mmHg 84%
    09:00 +26°C° 0 mm 3 mps 743 mmHg 80%
    10:00 +28°C° 0 mm 3 mps 743 mmHg 74%
    11:00 +30°C° 0 mm 3 mps 743 mmHg 68%
    12:00 +32°C° 0 mm 4 mps 743 mmHg 62%
    13:00 +31°C° 0.3 mm 3 mps 743 mmHg 63%
    14:00 +31°C° 0.3 mm 3 mps 742 mmHg 63%
    15:00 +33°C° 0.3 mm 3 mps 742 mmHg 63%
    16:00 +30°C° 0.2 mm 3 mps 742 mmHg 69%
    17:00 +28°C° 0.2 mm 3 mps 742 mmHg 76%
    18:00 +26°C° 0.2 mm 3 mps 742 mmHg 82%
    19:00 +26°C° 0 mm 3 mps 743 mmHg 84%
    20:00 +25°C° 0 mm 3 mps 743 mmHg 86%
    21:00 +24°C° 0 mm 3 mps 743 mmHg 87%
    22:00 +24°C° 0 mm 3 mps 743 mmHg 88%
    23:00 +22°C° 0 mm 3 mps 743 mmHg 88%

    22 September, Friday

    Time Temperature Precipitation Wind Pressure Humidity
    00:00 +22°C° 0 mm 3 mps 743 mmHg 89%
    01:00 +22°C° 0 mm 3 mps 743 mmHg 90%
    02:00 +21°C° 0 mm 3 mps 743 mmHg 91%
    03:00 +21°C° 0 mm 2 mps 743 mmHg 92%
    04:00 +21°C° 0 mm 2 mps 743 mmHg 92%
    05:00 +21°C° 0 mm 2 mps 744 mmHg 93%
    06:00 +21°C° 0 mm 2 mps 744 mmHg 93%
    07:00 +24°C° 0.1 mm 2 mps 744 mmHg 87%
    08:00 +26°C° 0.1 mm 2 mps 744 mmHg 81%
    09:00 +28°C° 0.1 mm 2 mps 745 mmHg 76%
    10:00 +30°C° 0 mm 2 mps 744 mmHg 70%
    11:00 +31°C° 0 mm 3 mps 744 mmHg 64%
    12:00 +33°C° 0 mm 3 mps 744 mmHg 58%
    13:00 +33°C° 0 mm 3 mps 744 mmHg 57%
    14:00 +34°C° 0 mm 2 mps 743 mmHg 57%
    15:00 +34°C° 0 mm 2 mps 743 mmHg 56%
    16:00 +31°C° 0 mm 2 mps 743 mmHg 62%
    17:00 +29°C° 0 mm 2 mps 743 mmHg 67%
    18:00 +27°C° 0 mm 2 mps 743 mmHg 73%
    19:00 +27°C° 0 mm 2 mps 743 mmHg 75%
    20:00 +26°C° 0 mm 2 mps 743 mmHg 78%
    21:00 +25°C° 0 mm 3 mps 743 mmHg 80%
    22:00 +25°C° 0 mm 3 mps 743 mmHg 81%
    23:00 +24°C° 0 mm 3 mps 743 mmHg 83%

    23 September, Saturday

    Time Temperature Precipitation Wind Pressure Humidity
    00:00 +24°C° 0 mm 2 mps 743 mmHg 84%
    01:00 +23°C° 0 mm 2 mps 743 mmHg 85%
    02:00 +23°C° 0 mm 2 mps 743 mmHg 87%
    03:00 +23°C° 0 mm 2 mps 743 mmHg 88%
    04:00 +23°C° 0 mm 2 mps 743 mmHg 89%
    05:00 +21°C° 0 mm 2 mps 744 mmHg 89%
    06:00 +21°C° 0 mm 2 mps 744 mmHg 90%
    07:00 +25°C° 0 mm 2 mps 744 mmHg 83%
    08:00 +27°C° 0 mm 2 mps 744 mmHg 76%
    09:00 +29°C° 0 mm 2 mps 745 mmHg 69%
    10:00 +30°C° 0 mm 2 mps 744 mmHg 64%
    11:00 +31°C° 0 mm 2 mps 744 mmHg 60%
    12:00 +32°C° 0 mm 1 mps 744 mmHg 56%
    13:00 +32°C° 0 mm 1 mps 743 mmHg 55%
    14:00 +32°C° 0 mm 1 mps 743 mmHg 54%
    15:00 +32°C° 0 mm 1 mps 743 mmHg 53%
    16:00 +31°C° 0 mm 1 mps 743 mmHg 58%
    17:00 +29°C° 0 mm 1 mps 743 mmHg 63%
    18:00 +27°C° 0 mm 1 mps 743 mmHg 68%
    19:00 +26°C° 0 mm 1 mps 743 mmHg 71%
    20:00 +26°C° 0 mm 2 mps 743 mmHg 73%
    21:00 +25°C° 0 mm 2 mps 743 mmHg 75%
    22:00 +24°C° 0 mm 2 mps 743 mmHg 77%
    23:00 +24°C° 0 mm 2 mps 743 mmHg 79%

    24 September, Sunday

    Time Temperature Precipitation Wind Pressure Humidity
    00:00 +23°C° 0 mm 2 mps 743 mmHg 82%
    01:00 +23°C° 0 mm 2 mps 743 mmHg 84%
    02:00 +21°C° 0 mm 2 mps 743 mmHg 85%
    03:00 +22°C° 0 mm 1 mps 743 mmHg 87%
    04:00 +22°C° 0 mm 1 mps 744 mmHg 88%
    05:00 +22°C° 0 mm 1 mps 744 mmHg 88%
    06:00 +22°C° 0 mm 1 mps 744 mmHg 88%
    07:00 +24°C° 0 mm 1 mps 744 mmHg 80%
    08:00 +26°C° 0 mm 1 mps 744 mmHg 72%
    09:00 +28°C° 0 mm 1 mps 744 mmHg 65%
    10:00 +29°C° 0 mm 2 mps 744 mmHg 60%
    11:00 +30°C° 0 mm 2 mps 744 mmHg 55%
    12:00 +32°C° 0 mm 2 mps 744 mmHg 50%
    13:00 +32°C° 0 mm 2 mps 744 mmHg 49%
    14:00 +32°C° 0 mm 2 mps 743 mmHg 48%
    15:00 +32°C° 0 mm 2 mps 743 mmHg 48%
    16:00 +30°C° 0 mm 2 mps 743 mmHg 53%
    17:00 +28°C° 0 mm 1 mps 743 mmHg 59%
    18:00 +26°C° 0 mm 1 mps 743 mmHg 64%
    19:00 +26°C° 0 mm 1 mps 743 mmHg 67%
    20:00 +25°C° 0 mm 1 mps 743 mmHg 70%
    21:00 +24°C° 0 mm 2 mps 743 mmHg 72%
    22:00 +24°C° 0 mm 2 mps 743 mmHg 75%
    23:00 +23°C° 0 mm 2 mps 743 mmHg 77%
    Show more